Location: Innerarity Island Observatory
(30.3139°N, 87.4867°W)
Time: 16:13:28
(UTC-06:00)

JAS-2 - Visible Passes

Search period start: 23 November 2014 00:00
Search period end: 03 December 2014 00:00
Orbit: 801 x 1321 km, 98.5° (Epoch: 23 November)

Date Brightness Start Highest point End Pass type
(mag) Time Alt. Az. Time Alt. Az. Time Alt. Az.
23 Nov 10.5 04:42:31 10° NNE 04:49:19 52° E 04:55:17 10° S visible
23 Nov 13.0 18:20:05 10° WSW 18:23:13 13° W 18:26:27 10° WNW visible
24 Nov 12.3 03:49:40 10° NE 03:53:47 17° E 03:57:37 10° SE visible
24 Nov 9.7 05:32:31 10° N 05:39:23 60° WNW 05:45:24 10° SSW visible
24 Nov 11.7 17:20:56 10° SSW 17:27:40 39° W 17:34:51 10° NNW visible
25 Nov 10.6 04:37:49 10° NNE 04:44:25 48° E 04:50:13 10° S visible
25 Nov 12.9 18:14:34 10° WSW 18:18:20 14° W 18:22:13 10° WNW visible
26 Nov 12.3 03:45:18 10° ENE 03:48:50 15° E 03:52:09 10° ESE visible
26 Nov 9.6 05:27:44 10° N 05:34:31 64° WNW 05:40:28 10° SSW visible
26 Nov 11.6 17:15:56 10° SSW 17:22:51 41° W 17:30:11 10° NNW visible
27 Nov 10.7 04:33:07 10° NNE 04:39:30 44° E 04:45:07 10° SSE visible
27 Nov 12.8 18:09:12 10° SW 18:13:28 16° W 18:17:53 10° NW visible
28 Nov 12.4 03:41:02 10° ENE 03:43:52 13° E 03:46:33 10° ESE visible
28 Nov 9.5 05:22:56 10° N 05:29:39 69° WNW 05:35:31 10° SSW visible
28 Nov 11.5 17:10:57 10° SSW 17:18:03 45° W 17:25:29 10° NNW visible
29 Nov 10.9 04:28:26 10° NNE 04:34:34 40° E 04:39:59 10° SSE visible
29 Nov 12.8 18:03:54 10° SW 18:08:37 17° W 18:13:27 10° NW visible
30 Nov 12.5 03:37:01 10° ENE 03:38:53 11° E 03:40:43 10° ESE visible
30 Nov 9.5 05:18:09 10° N 05:24:45 74° WNW 05:30:32 10° SSW visible
30 Nov 11.3 17:05:59 10° S 17:13:14 48° W 17:20:47 10° NNW visible
01 Dec 11.0 04:23:45 10° NNE 04:29:37 36° E 04:34:51 10° SSE visible
01 Dec 12.7 17:58:41 10° SW 18:03:46 19° W 18:08:58 10° NW visible
02 Dec 9.4 05:13:21 10° N 05:19:51 80° WNW 05:25:33 10° SSW visible
